SCP
0 0 0 0 0 0 0 0 0 0 0 0 0 0 0 0 0 0 0 0 0 0 0 0 0 0 0 0 0 0 0 0 0 0 0 0 0 0 0 0 0 0 0 0 0 0 0 0 0 0 0 0 0 0
0 0 0 0 0 0 0 0 0 0 0 0 0 0 0 0 0 0 0 0 0 0 0 0 0 0 0 0 0 0 0 0 0 0 0 0 0 0 0 0 0 0 0 0 0 0 0 0 0 0 0 0 0 0
0 0 0 0 0 0 0 0 0 0 0 0 0 0 0 0 0 0 0 0 0 0 0 0 0 0 0 0 0 0 0 0 0 0 0 0 0 0 0 0 0 0 0 0 0 0 0 0 0 0 0 0 0 0
0 0 0 0 0 0 0 0 0 0 0 0 0 0 0 0 0 0 0 0 0 0 0 0 0 0 0 0 0 0 0 0 0 0 0 0 0 0 0 0 0 0 0 0 0 0 0 0 0 0 0 0 0 0
0 0 0 0 0 0 0 0 0 0 0 0 0 0 0 0 0 0 0 0 0 0 0 0 0 0 0 0 0 0 0 0 0 0 0 0 0 0 0 0 0 0 0 0 0 0 0 0 0 0 0 0 0 0
0 0 0 0 0 0 0 0 0 0 0 0 0 0 0 0 0 0 0 0 0 0 0 0 0 0 0 0 0 0 0 0 0 0 0 0 0 0 0 0 0 0 0 0 0 0 0 0 0 0 0 0 0 0
0 0 0 0 0 0 0 0 0 0 0 0 0 0 0 0 0 0 0 0 0 0 0 0 0 0 0 0 0 0 0 0 0 0 0 0 0 0 0 0 0 0 0 0 0 0 0 0 0 0 0 0 0 0
0 0 0 0 0 0 0 0 0 0 0 0 0 0 0 0 0 0 0 0 0 0 0 0 0 0 0 0 0 0 0 0 0 0 0 0 0 0 0 0 0 0 0 0 0 0 0 0 0 0 0 0 0 0
0 0 0 0 0 0 0 0 0 0 0 0 0 0 0 0 0 0 0 0 0 0 0 0 0 0 0 0 0 0 0 0 0 0 0 0 0 0 0 0 0 0 0 0 0 0 0 0 0 0 0 0 0 0
0 0 0 0 0 0 0 0 0 0 0 0 0 0 0 0 0 0 0 0 0 0 0 0 0 0 0 0 0 0 0 0 0 0 0 0 0 0 0 0 0 0 0 0 0 0 0 0 0 0 0 0 0 0
0 0 0 0 0 0 0 0 0 0 0 0 0 0 0 0 0 0 0 0 0 0 0 0 0 0 0 0 0 0 0 0 0 0 0 0 0 0 0 0 0 0 0 0 0 0 0 0 0 0 0 0 0 0
0 0 0 0 0 0 0 0 0 0 0 0 0 0 0 0 0 0 0 0 0 0 0 0 0 0 0 0 0 0 0 0 0 0 0 0 0 0 0 0 0 0 0 0 0 0 0 0 0 0 0 0 0 0
-0 0 0 0 0 0 0 0 0 0 0 0 0 0 0 0 0 0 0 0 0 0 0 0 0 0 0 0 0 0 0 0 0 0 0 0 0 0 0 0 0 0 0 0 0 0 0 0 0 0 0 0 0 0
0 -0 -0 0 0 0 0 0 0 0 0 0 0 0 0 0 0 0 0 0 0 0 0 0 0 0 0 0 0 0 0 0 0 0 0 0 0 0 0 0 0 0 0 0 0 0 0 0 0 0 0 0 0 0
0 0 -0 0 0 0 0 0 0 0 0 0 0 0 0 0 0 0 0 0 0 0 0 0 0 0 0 0 0 0 0 0 0 0 0 0 0 0 0 0 0 0 0 0 0 0 0 0 0 0 0 0 0 0
0 0 0 0 0 0 0 0 0 0 0 0 0 0 0 0 0 0 0 0 0 0 0 0 0 0 0 0 0 0 0 0 0 0 0 0 0 0 0 0 0 0 0 0 0 0 0 0 0 0 0 0 0 -0
0 0 0 0 0 0 0 0 0 0 0 0 0 0 0 0 0 0 0 0 0 0 0 0 0 0 0 0 0 0 0 0 0 0 0 0 0 0 0 0 0 0 0 0 0 0 0 0 0 0 0 0 -0 -0
0 0 0 0 0 0 0 0 0 0 0 0 0 0 0 0 0 0 0 0 0 0 0 0 0 0 0 0 0 0 0 0 0 0 0 0 0 0 0 0 0 0 0 0 0 0 0 0 0 0 -0 -0 0 0
0 0 0 0 0 0 0 0 0 0 0 0 0 0 0 0 0 0 0 0 0 0 0 0 0 0 0 0 0 0 0 0 0 0 0 0 0 0 0 0 0 0 0 0 0 0 0 0 0 -0 0 0 0 0
0 -0 -0 0 0 0 0 0 0 0 0 0 0 0 0 0 0 0 0 0 0 0 0 0 0 0 0 0 0 0 0 0 0 0 0 0 0 0 0 0 0 0 0 0 0 0 0 -0 -0 0 0 0 0 0
0 0 -0 0 0 0 0 0 0 0 0 0 0 0 0 0 0 0 0 0 0 0 0 0 0 0 0 0 0 0 0 0 0 0 0 0 0 0 0 0 0 0 0 0 0 0 -0 0 0 0 0 0 0 0
0 0 0 0 0 0 0 0 0 0 0 0 0 0 0 0 0 0 0 0 0 0 0 0 0 0 0 0 0 0 0 0 0 0 0 0 0 0 0 0 0 0 0 0 0 0 0 0 0 0 0 0 0 0
0 0 0 0 0 0 0 0 0 0 0 0 0 0 0 0 0 0 0 0 0 0 0 0 0 0 0 0 0 0 0 0 0 0 0 0 0 0 0 0 0 0 0 0 0 0 0 0 0 0 0 0 0 0
-0 0 0 0 0 0 0 0 0 0 0 0 0 0 0 0 0 0 0 0 0 0 0 0 0 0 0 0 0 0 0 0 0 0 0 0 0 0 0 0 0 -0 -0 0 -0 0 0 0 0 0 0 0 0 0
0 0 0 0 0 0 0 0 0 0 0 0 0 0 0 0 0 0 0 0 0 0 0 0 0 0 0 0 0 0 0 0 0 0 0 0 0 0 0 0 -0 -0 -0 -0 -0 -0 -0 -0 0 0 0 0 0 0
-0 0 0 0 -0 0 0 0 0 0 0 0 0 0 0 0 0 0 0 0 0 0 0 0 0 0 0 0 0 0 -0 0 0 -0 -0 0 0 0 0 0 0 -0 -0 -0 -0 -0 0 0 0 0 0 0 0 0
-0 -0 -0 -0 -0 -0 0 0 0 0 0 0 0 0 0 0 0 0 0 0 0 0 0 0 0 0 -0 -0 -0 -0 0 -0 0 -0 0 0 0 0 0 -0 -0 -0 0 -0 -0 -0 0 0 0 0 0 0 0 0
0 0 0 -0 0 -0 -0 0 0 0 0 0 0 0 0 0 0 0 0 0 0 0 0 0 0 -0 -0 -0 0 0 0 -0 0 -0 0 0 0 0 0 -0 -0 -0 0 0 0 0 0 0 0 0 0 0 0 0
0 -0 -0 0 -0 -0 -0 -0 -0 -0 0 0 0 0 0 0 0 0 0 0 0 -0 -0 -0 -0 0 0 0 0 0 -0 -0 0 0 0 0 0 0 0 0 0 0 0 0 0 0 0 0 0 0 0 0 0 0
-0 -0 0 -0 -0 0 -0 -0 -0 -0 -0 -0 -0 -0 -0 0 0 0 0 0 0 0 0 0 0 0 0 0 0 0 0 0 0 0 0 0 0 0 0 0 0 0 0 0 0 0 0 0 0 0 0 0 0 0
0 -0 -0 0 0 0 0 0 -0 -0 -0 -0 -0 -0 -0 0 0 0 0 0 0 0 0 0 0 0 0 0 0 0 0 0 0 0 0 0 0 0 0 0 0 0 0 0 0 0 0 0 0 0 0 0 0 0
0 0 -0 0 0 0 0 0 0 0 0 0 0 0 0 0 0 0 0 0 0 0 0 0 0 0 0 0 0 0 0 0 0 0 0 0 0 0 0 0 0 0 0 0 0 0 0 0 0 0 0 0 0 0
0 0 0 0 0 0 0 0 0 0 0 0 0 0 0 0 0 0 0 0 0 0 0 0 0 0 0 0 0 0 0 0 0 0 0 0 0 0 0 0 0 0 0 0 0 0 0 0 0 0 0 0 0 0
Wind_Speed_500mb
56 58 57 56 58 55 56 55 55 54 54 50 47 43 47 53 47 47 58 56 71 34 51 38 51 43 22 26 9 10 3 5 4 5 7 7 7 9 1 8 9 10 8 7 5 3 14 12 6 9 9 46 49 46
56 60 59 60 59 61 61 58 61 58 56 55 56 52 46 45 54 55 55 53 53 63 34 39 70 72 71 61 37 30 19 16 19 5 3 4 4 0 7 13 6 7 12 8 19 12 9 19 30 64 65 52 67 57
63 59 60 63 62 66 67 62 60 57 57 56 56 57 57 56 50 49 56 59 54 52 52 51 68 83 66 60 54 39 27 39 34 40 13 9 11 8 7 12 8 13 16 15 21 26 30 61 71 72 69 72 71 67
60 66 64 63 65 66 63 63 61 62 61 57 55 56 57 53 43 46 53 58 55 34 13 24 48 67 75 59 69 76 72 31 38 43 20 7 7 20 12 16 16 22 7 11 28 33 40 59 68 70 61 57 53 49
63 66 63 67 64 66 69 65 62 61 62 62 62 60 55 46 44 46 53 61 63 54 5 9 30 48 41 46 55 56 68 69 36 19 10 15 13 13 15 15 26 32 35 22 31 45 42 52 60 40 36 31 38 43
65 62 63 62 63 64 63 65 67 67 65 61 60 61 60 53 48 44 38 58 66 59 17 6 25 25 42 53 56 61 64 58 46 21 12 17 41 16 11 20 47 52 55 63 50 75 67 56 40 39 27 30 34 35
55 57 57 57 57 58 59 61 61 62 62 60 60 59 60 57 55 60 17 9 19 35 16 6 7 25 47 55 60 57 56 37 35 23 16 25 37 28 13 30 54 50 51 60 60 51 42 43 21 23 25 32 38 41
52 52 55 55 53 54 55 56 57 58 58 58 59 60 58 60 61 64 68 57 45 28 17 5 6 2 31 20 21 34 26 34 24 20 9 7 18 18 14 29 52 62 59 51 50 41 36 28 26 27 30 34 42 46
48 48 48 48 50 52 53 53 52 52 52 53 53 56 54 65 61 52 60 51 52 38 8 8 8 8 22 15 13 18 19 8 15 10 8 16 6 12 13 31 51 51 31 24 24 21 19 18 21 26 31 34 41 48
42 48 50 50 50 44 47 52 50 48 46 46 46 41 22 26 47 29 23 21 32 33 33 9 20 6 27 21 13 12 14 7 7 11 14 9 23 49 42 42 33 21 18 16 12 12 17 20 21 27 30 34 42 54
46 48 45 45 50 51 46 45 46 44 42 47 30 24 21 39 43 25 16 16 15 5 12 5 39 7 18 6 8 17 5 5 5 9 10 5 10 13 36 31 24 19 17 15 15 16 17 21 25 31 37 43 49 56
43 47 52 52 46 45 42 43 41 41 56 50 35 32 39 18 16 11 11 5 7 12 10 8 17 30 17 16 6 11 7 5 10 3 6 7 9 11 18 18 16 14 13 11 12 15 19 22 28 36 44 49 51 55
49 48 46 48 51 45 42 42 42 47 44 44 17 22 25 17 13 17 17 3 2 7 22 18 6 17 13 16 6 7 10 9 6 4 8 10 11 18 20 16 13 10 9 10 15 20 24 30 34 40 47 45 48 50
51 50 49 46 46 46 42 39 41 41 38 17 13 10 11 9 9 8 12 13 17 24 46 35 12 6 8 8 5 7 3 6 3 6 13 5 15 20 16 13 12 10 12 15 20 26 31 35 39 39 40 42 45 45
44 46 47 45 40 39 42 38 38 44 24 14 10 10 9 3 6 21 26 26 26 32 40 15 10 13 4 6 6 7 4 8 12 12 7 10 22 18 14 9 7 11 15 19 24 28 32 35 38 39 33 33 33 34
19 21 31 37 39 36 34 36 37 46 11 18 10 7 4 5 5 10 22 16 32 42 23 11 7 7 9 6 9 14 12 14 10 5 15 24 18 12 7 5 10 15 19 23 26 29 32 32 32 32 28 25 24 24
11 9 10 10 21 23 26 34 30 14 7 7 4 4 6 5 2 10 18 23 39 35 6 6 10 16 4 5 5 9 11 7 11 22 25 18 11 9 4 6 11 15 18 23 24 25 25 25 25 23 24 20 18 15
4 7 11 13 21 30 25 17 8 8 8 5 3 7 6 10 12 8 15 36 27 20 23 10 12 5 11 13 8 6 7 15 20 20 15 10 7 4 3 5 9 11 13 16 19 19 20 20 18 18 18 16 12 9
7 8 10 11 20 22 11 7 5 7 7 6 9 8 8 9 8 11 16 33 19 17 21 14 6 7 8 5 6 12 21 19 16 19 13 11 7 2 2 3 5 7 10 12 13 14 16 16 17 16 13 11 10 8
17 11 6 18 19 10 10 10 7 10 5 9 10 11 12 9 13 13 15 21 23 13 4 6 5 5 5 12 15 20 20 17 17 18 15 12 8 6 6 5 5 7 9 10 12 13 14 13 13 12 10 9 8 8
7 2 4 27 14 12 12 9 11 10 11 9 12 7 6 13 10 10 9 15 5 1 1 3 7 13 16 15 12 11 12 12 13 12 9 16 14 11 9 8 7 7 7 10 13 16 17 19 19 17 14 12 11 11
7 6 9 10 10 10 13 14 11 10 8 7 6 6 8 5 8 8 5 2 1 2 5 8 17 14 12 11 10 10 9 11 11 13 17 18 19 15 10 7 3 2 5 8 11 12 15 16 17 17 16 16 15 14
12 5 8 9 10 12 6 8 8 7 5 1 3 3 4 4 5 3 2 1 2 5 10 15 14 12 11 12 12 12 13 14 16 19 20 19 15 11 6 3 2 5 7 8 9 10 12 14 14 13 14 14 14 14
13 8 12 11 15 5 5 8 7 6 6 5 3 4 1 3 8 4 4 4 7 13 15 14 15 15 14 14 15 16 16 17 18 17 15 12 9 5 3 4 5 6 7 9 9 9 10 11 13 15 16 17 18 18
7 20 13 11 13 7 8 4 5 2 5 3 4 1 3 5 3 4 2 4 5 15 17 16 16 15 15 19 20 19 18 16 13 11 9 6 5 5 6 6 7 7 6 5 6 8 10 12 14 16 19 21 21 22
15 17 10 2 8 5 1 5 3 3 3 4 1 5 6 5 6 5 5 1 2 14 16 15 18 20 20 19 17 14 11 8 6 6 8 10 11 12 12 12 10 7 5 4 7 10 13 16 18 20 21 22 26 30
10 8 11 13 5 5 7 7 5 5 5 4 3 2 5 5 4 6 5 4 5 10 15 16 17 16 14 15 12 8 6 4 4 5 7 9 11 13 14 14 11 9 8 10 14 17 20 22 23 24 26 25 27 32
8 14 5 15 7 9 7 3 4 3 2 1 2 2 8 10 6 5 7 3 6 12 18 23 25 22 15 12 9 6 4 1 3 6 7 7 7 8 8 7 8 10 13 17 20 24 26 28 29 30 31 33 34 36
9 17 10 8 6 8 4 3 3 2 2 1 4 2 5 3 1 2 5 4 10 16 18 21 20 17 15 13 9 6 3 3 4 6 6 6 5 4 5 8 11 16 22 26 27 30 31 33 35 38 40 44 46 46
12 20 6 4 4 3 4 4 3 2 2 4 6 7 7 4 4 6 7 7 12 14 17 19 18 17 15 12 9 8 8 10 11 13 14 10 12 15 17 19 21 24 29 32 33 33 35 40 43 47 51 54 54 54
13 10 4 3 1 2 4 9 12 10 8 4 8 8 8 9 5 13 2 10 17 22 22 21 19 18 16 11 9 11 11 15 13 13 17 20 21 22 23 26 28 30 33 35 38 42 48 53 56 58 59 60 58 57
12 7 2 5 4 6 6 10 4 2 2 2 2 5 6 6 4 8 18 8 7 14 15 17 15 11 14 15 15 14 13 13 16 19 22 25 28 31 34 37 39 42 47 52 57 61 64 66 65 62 61 59 56 53
7 8 6 6 4 3 11 14 6 4 0 1 2 6 7 4 4 14 18 20 6 6 14 14 12 9 6 3 3 6 10 15 21 28 34 40 44 48 51 54 56 59 63 67 67 66 66 64 61 56 53 51 50 48
Wind_Direction_500mb
258 257 257 254 254 248 250 253 255 246 249 246 247 247 241 242 242 242 245 245 218 229 238 227 232 222 197 207 160 189 63 243 107 175 154 218 192 222 106 240 201 188 183 204 72 14 278 185 144 159 228 295 296 294
262 258 259 261 255 254 251 254 249 244 244 249 249 247 245 239 235 240 249 247 255 242 255 241 244 249 244 242 230 208 208 170 186 108 238 109 259 200 187 261 140 269 193 199 195 210 219 204 262 287 287 280 287 283
265 266 258 255 257 257 255 245 249 249 249 246 244 250 244 244 245 233 244 255 260 245 254 250 240 254 240 226 229 217 229 226 223 221 190 200 227 136 200 238 235 247 195 239 265 255 254 267 273 278 285 287 289 292
263 263 265 261 255 255 257 256 253 251 248 246 244 249 249 239 249 248 246 247 249 237 249 257 259 252 254 244 239 231 237 227 234 231 223 204 197 190 237 244 242 251 200 244 258 261 265 265 265 270 286 290 287 291
267 263 262 263 259 255 254 254 254 253 252 250 248 246 243 242 240 246 251 253 251 242 271 244 261 256 246 234 227 222 229 231 223 210 209 227 231 224 245 253 251 242 251 251 261 257 260 267 276 285 289 278 283 291
263 263 263 261 260 259 256 254 252 254 255 254 250 248 243 235 238 239 256 255 247 248 241 220 245 230 238 227 224 223 225 226 220 219 218 228 241 216 246 256 259 263 262 250 249 261 264 270 276 282 277 285 290 295
266 263 261 260 259 257 255 254 253 253 254 254 251 248 243 238 225 218 210 193 223 219 233 234 223 213 218 220 220 226 230 218 221 231 228 240 245 235 249 256 270 259 252 258 256 260 267 265 260 277 288 291 295 300
269 267 265 261 259 257 255 253 252 252 252 251 250 246 242 238 232 229 228 238 240 228 248 241 245 255 192 184 200 209 203 204 217 228 226 212 259 216 245 248 259 255 254 255 252 252 251 260 274 282 290 296 299 306
262 265 262 262 262 258 255 253 252 251 251 247 246 245 238 228 224 225 233 235 242 227 238 203 163 228 182 181 182 174 187 186 219 212 203 185 222 219 220 246 249 254 235 237 231 242 254 262 273 286 297 304 307 312
270 267 267 266 261 261 255 251 246 248 249 243 237 227 204 202 201 180 166 196 212 208 208 197 189 212 178 178 188 159 186 214 212 219 183 208 244 248 251 245 248 237 234 235 244 247 254 267 286 296 301 308 311 311
270 268 267 262 263 259 255 247 244 245 241 236 223 186 176 165 165 171 188 185 199 209 206 163 196 154 190 148 197 204 185 188 228 248 160 247 261 235 238 234 228 231 240 251 257 264 276 290 299 302 307 311 312 311
268 263 255 259 256 259 251 245 242 236 231 235 208 164 152 179 164 179 180 160 151 210 176 150 193 194 174 179 149 183 199 159 236 127 97 267 245 207 207 209 217 226 237 249 260 275 285 292 298 302 304 307 308 307
266 259 259 256 252 247 248 241 237 243 245 214 200 181 162 168 188 177 170 252 167 181 179 174 179 165 150 184 185 193 202 216 106 89 225 230 184 196 192 193 207 229 246 264 281 290 299 302 302 302 304 309 307 307
266 256 252 250 248 240 241 242 233 231 222 194 162 213 189 175 190 177 171 168 195 177 172 165 126 150 179 183 175 197 169 118 153 227 230 229 177 175 177 193 208 231 265 289 298 301 303 303 305 310 312 310 308 309
278 250 247 245 237 235 235 234 225 222 222 187 198 212 201 229 110 166 165 147 163 175 155 121 104 146 177 208 184 104 78 237 204 226 229 168 155 169 185 194 239 281 296 300 302 308 313 313 312 313 314 308 303 303
265 237 243 238 238 235 224 221 218 221 230 194 160 140 52 71 332 164 173 145 162 158 132 118 129 156 194 192 171 209 149 219 242 207 149 156 162 183 208 246 281 300 311 316 317 315 316 316 315 316 318 314 309 309
190 188 216 216 213 211 208 212 216 206 145 102 95 123 136 92 139 173 161 153 158 148 156 128 151 202 88 150 226 192 207 217 177 147 153 164 177 199 227 286 305 311 314 316 322 321 319 318 316 316 320 330 327 320
181 222 235 232 212 208 195 208 169 109 72 40 193 141 110 105 131 159 170 158 159 178 146 180 127 175 189 185 245 221 153 140 141 152 165 174 193 221 279 310 318 326 328 330 333 333 329 325 328 331 330 334 336 338
335 269 230 224 216 188 141 102 122 100 87 114 114 128 113 107 129 163 167 173 164 159 152 133 162 200 217 197 171 167 164 155 168 180 186 183 185 206 328 359 2 1 358 1 360 357 357 352 344 339 338 345 354 358
328 308 214 209 212 139 100 71 82 86 112 123 128 123 121 129 141 140 148 162 148 162 160 172 210 169 153 144 129 133 146 157 165 167 183 187 181 162 143 126 94 58 37 32 27 28 30 26 17 12 9 10 18 35
304 347 179 194 146 82 86 81 81 107 124 120 126 116 113 129 135 152 149 139 156 248 154 129 136 143 130 133 130 141 156 170 184 190 185 180 171 159 147 128 99 79 59 51 44 39 35 34 32 30 29 31 34 31
159 101 109 95 83 77 74 52 82 79 69 75 46 65 42 24 30 34 70 92 106 125 114 129 149 148 155 158 155 159 170 175 171 165 166 164 168 163 155 144 119 36 25 24 21 21 23 22 25 28 29 30 29 27
143 121 75 64 85 57 43 64 68 39 93 45 64 91 44 28 15 30 22 267 139 169 154 152 158 155 153 150 150 156 154 156 154 154 155 164 173 180 190 217 286 345 351 349 351 357 5 359 358 2 6 5 5 4
116 63 39 47 42 80 80 46 60 72 82 38 58 98 75 329 348 40 223 261 175 167 159 154 152 150 148 150 148 142 141 143 145 149 159 170 183 204 250 293 309 304 327 342 349 348 351 357 1 5 5 4 0 357
97 11 21 12 27 55 48 44 15 81 94 32 112 74 274 314 75 35 245 280 198 183 175 166 161 152 150 145 139 136 137 141 146 156 169 187 227 259 276 298 310 305 304 342 2 5 6 4 3 1 360 358 356 355
67 4 41 286 345 73 203 82 45 162 111 64 294 287 360 73 65 249 240 344 213 194 186 176 163 156 149 144 147 145 154 173 201 239 255 256 255 261 273 278 277 281 265 302 325 334 337 338 339 339 342 340 338 337
61 339 18 31 28 94 71 59 93 89 87 135 231 53 68 80 262 263 15 29 79 133 152 156 156 147 150 160 161 169 178 208 255 277 277 283 280 278 273 267 260 261 272 296 310 318 324 327 328 330 333 339 340 336
76 26 58 337 16 29 126 80 61 85 234 167 107 71 140 172 224 12 17 89 135 160 166 161 161 167 170 178 178 186 185 197 297 303 295 292 294 280 271 258 255 275 292 302 309 314 317 319 322 324 327 331 337 338
38 358 355 10 16 39 56 112 196 70 104 215 120 262 264 278 356 56 33 166 167 173 181 181 180 180 184 188 196 198 206 252 299 311 303 303 309 315 318 306 300 299 300 303 308 311 310 311 313 313 316 319 322 323
3 358 13 28 57 10 355 33 43 38 298 294 300 298 289 296 301 284 251 216 181 180 189 194 199 202 204 215 227 246 264 279 290 298 300 293 284 291 298 298 296 295 295 301 306 308 306 304 304 303 303 305 308 309
344 342 336 23 225 27 342 317 300 285 265 279 263 266 291 315 27 31 344 215 202 194 198 207 213 215 219 232 258 264 265 274 279 282 287 294 297 299 296 293 294 293 294 298 302 305 308 307 305 302 300 300 302 303
336 18 47 1 317 352 353 350 305 281 241 261 266 311 330 332 25 55 17 16 230 221 214 217 221 229 236 240 257 280 290 293 295 298 303 307 307 305 300 296 294 292 292 294 296 299 301 303 303 303 302 302 302 303
319 345 344 321 338 22 356 351 24 13 282 14 26 360 11 18 72 20 10 13 21 191 201 200 203 215 237 274 343 10 359 342 327 316 310 305 303 301 297 294 291 289 289 291 293 294 297 298 299 299 299 300 302 303
Wind_Speed_850mb
56 58 57 56 58 55 56 55 55 54 54 50 47 43 47 53 47 47 58 56 71 34 51 38 51 43 22 26 9 10 3 5 4 5 7 7 7 9 1 8 9 10 8 7 5 3 14 12 6 9 9 46 49 46
56 60 59 60 59 61 61 58 61 58 56 55 56 52 46 45 54 55 55 53 53 63 34 39 70 72 71 61 37 30 19 16 19 5 3 4 4 0 7 13 6 7 12 8 19 12 9 19 30 64 65 52 67 57
63 59 60 63 62 66 67 62 60 57 57 56 56 57 57 56 50 49 56 59 54 52 52 51 68 83 66 60 54 39 27 39 34 40 13 9 11 8 7 12 8 13 16 15 21 26 30 61 71 72 69 72 71 67
60 66 64 63 65 66 63 63 61 62 61 57 55 56 57 53 43 46 53 58 55 34 13 24 48 67 75 59 69 76 72 31 38 43 20 7 7 20 12 16 16 22 7 11 28 33 40 59 68 70 61 57 53 49
63 66 63 67 64 66 69 65 62 61 62 62 62 60 55 46 44 46 53 61 63 54 5 9 30 48 41 46 55 56 68 69 36 19 10 15 13 13 15 15 26 32 35 22 31 45 42 52 60 40 36 31 38 43
65 62 63 62 63 64 63 65 67 67 65 61 60 61 60 53 48 44 38 58 66 59 17 6 25 25 42 53 56 61 64 58 46 21 12 17 41 16 11 20 47 52 55 63 50 75 67 56 40 39 27 30 34 35
55 57 57 57 57 58 59 61 61 62 62 60 60 59 60 57 55 60 17 9 19 35 16 6 7 25 47 55 60 57 56 37 35 23 16 25 37 28 13 30 54 50 51 60 60 51 42 43 21 23 25 32 38 41
52 52 55 55 53 54 55 56 57 58 58 58 59 60 58 60 61 64 68 57 45 28 17 5 6 2 31 20 21 34 26 34 24 20 9 7 18 18 14 29 52 62 59 51 50 41 36 28 26 27 30 34 42 46
48 48 48 48 50 52 53 53 52 52 52 53 53 56 54 65 61 52 60 51 52 38 8 8 8 8 22 15 13 18 19 8 15 10 8 16 6 12 13 31 51 51 31 24 24 21 19 18 21 26 31 34 41 48
42 48 50 50 50 44 47 52 50 48 46 46 46 41 22 26 47 29 23 21 32 33 33 9 20 6 27 21 13 12 14 7 7 11 14 9 23 49 42 42 33 21 18 16 12 12 17 20 21 27 30 34 42 54
46 48 45 45 50 51 46 45 46 44 42 47 30 24 21 39 43 25 16 16 15 5 12 5 39 7 18 6 8 17 5 5 5 9 10 5 10 13 36 31 24 19 17 15 15 16 17 21 25 31 37 43 49 56
43 47 52 52 46 45 42 43 41 41 56 50 35 32 39 18 16 11 11 5 7 12 10 8 17 30 17 16 6 11 7 5 10 3 6 7 9 11 18 18 16 14 13 11 12 15 19 22 28 36 44 49 51 55
49 48 46 48 51 45 42 42 42 47 44 44 17 22 25 17 13 17 17 3 2 7 22 18 6 17 13 16 6 7 10 9 6 4 8 10 11 18 20 16 13 10 9 10 15 20 24 30 34 40 47 45 48 50
51 50 49 46 46 46 42 39 41 41 38 17 13 10 11 9 9 8 12 13 17 24 46 35 12 6 8 8 5 7 3 6 3 6 13 5 15 20 16 13 12 10 12 15 20 26 31 35 39 39 40 42 45 45
44 46 47 45 40 39 42 38 38 44 24 14 10 10 9 3 6 21 26 26 26 32 40 15 10 13 4 6 6 7 4 8 12 12 7 10 22 18 14 9 7 11 15 19 24 28 32 35 38 39 33 33 33 34
19 21 31 37 39 36 34 36 37 46 11 18 10 7 4 5 5 10 22 16 32 42 23 11 7 7 9 6 9 14 12 14 10 5 15 24 18 12 7 5 10 15 19 23 26 29 32 32 32 32 28 25 24 24
11 9 10 10 21 23 26 34 30 14 7 7 4 4 6 5 2 10 18 23 39 35 6 6 10 16 4 5 5 9 11 7 11 22 25 18 11 9 4 6 11 15 18 23 24 25 25 25 25 23 24 20 18 15
4 7 11 13 21 30 25 17 8 8 8 5 3 7 6 10 12 8 15 36 27 20 23 10 12 5 11 13 8 6 7 15 20 20 15 10 7 4 3 5 9 11 13 16 19 19 20 20 18 18 18 16 12 9
7 8 10 11 20 22 11 7 5 7 7 6 9 8 8 9 8 11 16 33 19 17 21 14 6 7 8 5 6 12 21 19 16 19 13 11 7 2 2 3 5 7 10 12 13 14 16 16 17 16 13 11 10 8
17 11 6 18 19 10 10 10 7 10 5 9 10 11 12 9 13 13 15 21 23 13 4 6 5 5 5 12 15 20 20 17 17 18 15 12 8 6 6 5 5 7 9 10 12 13 14 13 13 12 10 9 8 8
7 2 4 27 14 12 12 9 11 10 11 9 12 7 6 13 10 10 9 15 5 1 1 3 7 13 16 15 12 11 12 12 13 12 9 16 14 11 9 8 7 7 7 10 13 16 17 19 19 17 14 12 11 11
7 6 9 10 10 10 13 14 11 10 8 7 6 6 8 5 8 8 5 2 1 2 5 8 17 14 12 11 10 10 9 11 11 13 17 18 19 15 10 7 3 2 5 8 11 12 15 16 17 17 16 16 15 14
12 5 8 9 10 12 6 8 8 7 5 1 3 3 4 4 5 3 2 1 2 5 10 15 14 12 11 12 12 12 13 14 16 19 20 19 15 11 6 3 2 5 7 8 9 10 12 14 14 13 14 14 14 14
13 8 12 11 15 5 5 8 7 6 6 5 3 4 1 3 8 4 4 4 7 13 15 14 15 15 14 14 15 16 16 17 18 17 15 12 9 5 3 4 5 6 7 9 9 9 10 11 13 15 16 17 18 18
7 20 13 11 13 7 8 4 5 2 5 3 4 1 3 5 3 4 2 4 5 15 17 16 16 15 15 19 20 19 18 16 13 11 9 6 5 5 6 6 7 7 6 5 6 8 10 12 14 16 19 21 21 22
15 17 10 2 8 5 1 5 3 3 3 4 1 5 6 5 6 5 5 1 2 14 16 15 18 20 20 19 17 14 11 8 6 6 8 10 11 12 12 12 10 7 5 4 7 10 13 16 18 20 21 22 26 30
10 8 11 13 5 5 7 7 5 5 5 4 3 2 5 5 4 6 5 4 5 10 15 16 17 16 14 15 12 8 6 4 4 5 7 9 11 13 14 14 11 9 8 10 14 17 20 22 23 24 26 25 27 32
8 14 5 15 7 9 7 3 4 3 2 1 2 2 8 10 6 5 7 3 6 12 18 23 25 22 15 12 9 6 4 1 3 6 7 7 7 8 8 7 8 10 13 17 20 24 26 28 29 30 31 33 34 36
9 17 10 8 6 8 4 3 3 2 2 1 4 2 5 3 1 2 5 4 10 16 18 21 20 17 15 13 9 6 3 3 4 6 6 6 5 4 5 8 11 16 22 26 27 30 31 33 35 38 40 44 46 46
12 20 6 4 4 3 4 4 3 2 2 4 6 7 7 4 4 6 7 7 12 14 17 19 18 17 15 12 9 8 8 10 11 13 14 10 12 15 17 19 21 24 29 32 33 33 35 40 43 47 51 54 54 54
13 10 4 3 1 2 4 9 12 10 8 4 8 8 8 9 5 13 2 10 17 22 22 21 19 18 16 11 9 11 11 15 13 13 17 20 21 22 23 26 28 30 33 35 38 42 48 53 56 58 59 60 58 57
12 7 2 5 4 6 6 10 4 2 2 2 2 5 6 6 4 8 18 8 7 14 15 17 15 11 14 15 15 14 13 13 16 19 22 25 28 31 34 37 39 42 47 52 57 61 64 66 65 62 61 59 56 53
7 8 6 6 4 3 11 14 6 4 0 1 2 6 7 4 4 14 18 20 6 6 14 14 12 9 6 3 3 6 10 15 21 28 34 40 44 48 51 54 56 59 63 67 67 66 66 64 61 56 53 51 50 48
Wind_Direction_850mb
258 257 257 254 254 248 250 253 255 246 249 246 247 247 241 242 242 242 245 245 218 229 238 227 232 222 197 207 160 189 63 243 107 175 154 218 192 222 106 240 201 188 183 204 72 14 278 185 144 159 228 295 296 294
262 258 259 261 255 254 251 254 249 244 244 249 249 247 245 239 235 240 249 247 255 242 255 241 244 249 244 242 230 208 208 170 186 108 238 109 259 200 187 261 140 269 193 199 195 210 219 204 262 287 287 280 287 283
265 266 258 255 257 257 255 245 249 249 249 246 244 250 244 244 245 233 244 255 260 245 254 250 240 254 240 226 229 217 229 226 223 221 190 200 227 136 200 238 235 247 195 239 265 255 254 267 273 278 285 287 289 292
263 263 265 261 255 255 257 256 253 251 248 246 244 249 249 239 249 248 246 247 249 237 249 257 259 252 254 244 239 231 237 227 234 231 223 204 197 190 237 244 242 251 200 244 258 261 265 265 265 270 286 290 287 291
267 263 262 263 259 255 254 254 254 253 252 250 248 246 243 242 240 246 251 253 251 242 271 244 261 256 246 234 227 222 229 231 223 210 209 227 231 224 245 253 251 242 251 251 261 257 260 267 276 285 289 278 283 291
263 263 263 261 260 259 256 254 252 254 255 254 250 248 243 235 238 239 256 255 247 248 241 220 245 230 238 227 224 223 225 226 220 219 218 228 241 216 246 256 259 263 262 250 249 261 264 270 276 282 277 285 290 295
266 263 261 260 259 257 255 254 253 253 254 254 251 248 243 238 225 218 210 193 223 219 233 234 223 213 218 220 220 226 230 218 221 231 228 240 245 235 249 256 270 259 252 258 256 260 267 265 260 277 288 291 295 300
269 267 265 261 259 257 255 253 252 252 252 251 250 246 242 238 232 229 228 238 240 228 248 241 245 255 192 184 200 209 203 204 217 228 226 212 259 216 245 248 259 255 254 255 252 252 251 260 274 282 290 296 299 306
262 265 262 262 262 258 255 253 252 251 251 247 246 245 238 228 224 225 233 235 242 227 238 203 163 228 182 181 182 174 187 186 219 212 203 185 222 219 220 246 249 254 235 237 231 242 254 262 273 286 297 304 307 312
270 267 267 266 261 261 255 251 246 248 249 243 237 227 204 202 201 180 166 196 212 208 208 197 189 212 178 178 188 159 186 214 212 219 183 208 244 248 251 245 248 237 234 235 244 247 254 267 286 296 301 308 311 311
270 268 267 262 263 259 255 247 244 245 241 236 223 186 176 165 165 171 188 185 199 209 206 163 196 154 190 148 197 204 185 188 228 248 160 247 261 235 238 234 228 231 240 251 257 264 276 290 299 302 307 311 312 311
268 263 255 259 256 259 251 245 242 236 231 235 208 164 152 179 164 179 180 160 151 210 176 150 193 194 174 179 149 183 199 159 236 127 97 267 245 207 207 209 217 226 237 249 260 275 285 292 298 302 304 307 308 307
266 259 259 256 252 247 248 241 237 243 245 214 200 181 162 168 188 177 170 252 167 181 179 174 179 165 150 184 185 193 202 216 106 89 225 230 184 196 192 193 207 229 246 264 281 290 299 302 302 302 304 309 307 307
266 256 252 250 248 240 241 242 233 231 222 194 162 213 189 175 190 177 171 168 195 177 172 165 126 150 179 183 175 197 169 118 153 227 230 229 177 175 177 193 208 231 265 289 298 301 303 303 305 310 312 310 308 309
278 250 247 245 237 235 235 234 225 222 222 187 198 212 201 229 110 166 165 147 163 175 155 121 104 146 177 208 184 104 78 237 204 226 229 168 155 169 185 194 239 281 296 300 302 308 313 313 312 313 314 308 303 303
265 237 243 238 238 235 224 221 218 221 230 194 160 140 52 71 332 164 173 145 162 158 132 118 129 156 194 192 171 209 149 219 242 207 149 156 162 183 208 246 281 300 311 316 317 315 316 316 315 316 318 314 309 309
190 188 216 216 213 211 208 212 216 206 145 102 95 123 136 92 139 173 161 153 158 148 156 128 151 202 88 150 226 192 207 217 177 147 153 164 177 199 227 286 305 311 314 316 322 321 319 318 316 316 320 330 327 320
181 222 235 232 212 208 195 208 169 109 72 40 193 141 110 105 131 159 170 158 159 178 146 180 127 175 189 185 245 221 153 140 141 152 165 174 193 221 279 310 318 326 328 330 333 333 329 325 328 331 330 334 336 338
335 269 230 224 216 188 141 102 122 100 87 114 114 128 113 107 129 163 167 173 164 159 152 133 162 200 217 197 171 167 164 155 168 180 186 183 185 206 328 359 2 1 358 1 360 357 357 352 344 339 338 345 354 358
328 308 214 209 212 139 100 71 82 86 112 123 128 123 121 129 141 140 148 162 148 162 160 172 210 169 153 144 129 133 146 157 165 167 183 187 181 162 143 126 94 58 37 32 27 28 30 26 17 12 9 10 18 35
304 347 179 194 146 82 86 81 81 107 124 120 126 116 113 129 135 152 149 139 156 248 154 129 136 143 130 133 130 141 156 170 184 190 185 180 171 159 147 128 99 79 59 51 44 39 35 34 32 30 29 31 34 31
159 101 109 95 83 77 74 52 82 79 69 75 46 65 42 24 30 34 70 92 106 125 114 129 149 148 155 158 155 159 170 175 171 165 166 164 168 163 155 144 119 36 25 24 21 21 23 22 25 28 29 30 29 27
143 121 75 64 85 57 43 64 68 39 93 45 64 91 44 28 15 30 22 267 139 169 154 152 158 155 153 150 150 156 154 156 154 154 155 164 173 180 190 217 286 345 351 349 351 357 5 359 358 2 6 5 5 4
116 63 39 47 42 80 80 46 60 72 82 38 58 98 75 329 348 40 223 261 175 167 159 154 152 150 148 150 148 142 141 143 145 149 159 170 183 204 250 293 309 304 327 342 349 348 351 357 1 5 5 4 0 357
97 11 21 12 27 55 48 44 15 81 94 32 112 74 274 314 75 35 245 280 198 183 175 166 161 152 150 145 139 136 137 141 146 156 169 187 227 259 276 298 310 305 304 342 2 5 6 4 3 1 360 358 356 355
67 4 41 286 345 73 203 82 45 162 111 64 294 287 360 73 65 249 240 344 213 194 186 176 163 156 149 144 147 145 154 173 201 239 255 256 255 261 273 278 277 281 265 302 325 334 337 338 339 339 342 340 338 337
61 339 18 31 28 94 71 59 93 89 87 135 231 53 68 80 262 263 15 29 79 133 152 156 156 147 150 160 161 169 178 208 255 277 277 283 280 278 273 267 260 261 272 296 310 318 324 327 328 330 333 339 340 336
76 26 58 337 16 29 126 80 61 85 234 167 107 71 140 172 224 12 17 89 135 160 166 161 161 167 170 178 178 186 185 197 297 303 295 292 294 280 271 258 255 275 292 302 309 314 317 319 322 324 327 331 337 338
38 358 355 10 16 39 56 112 196 70 104 215 120 262 264 278 356 56 33 166 167 173 181 181 180 180 184 188 196 198 206 252 299 311 303 303 309 315 318 306 300 299 300 303 308 311 310 311 313 313 316 319 322 323
3 358 13 28 57 10 355 33 43 38 298 294 300 298 289 296 301 284 251 216 181 180 189 194 199 202 204 215 227 246 264 279 290 298 300 293 284 291 298 298 296 295 295 301 306 308 306 304 304 303 303 305 308 309
344 342 336 23 225 27 342 317 300 285 265 279 263 266 291 315 27 31 344 215 202 194 198 207 213 215 219 232 258 264 265 274 279 282 287 294 297 299 296 293 294 293 294 298 302 305 308 307 305 302 300 300 302 303
336 18 47 1 317 352 353 350 305 281 241 261 266 311 330 332 25 55 17 16 230 221 214 217 221 229 236 240 257 280 290 293 295 298 303 307 307 305 300 296 294 292 292 294 296 299 301 303 303 303 302 302 302 303
319 345 344 321 338 22 356 351 24 13 282 14 26 360 11 18 72 20 10 13 21 191 201 200 203 215 237 274 343 10 359 342 327 316 310 305 303 301 297 294 291 289 289 291 293 294 297 298 299 299 299 300 302 303